TimeEST,TemperatureF,Dew PointF,Humidity,Sea Level PressureIn,VisibilityMPH,Wind Direction,Wind SpeedMPH,Gust SpeedMPH,PrecipitationIn,Events,Conditions,WindDirDegrees,DateUTC
12:56 AM,33.1,19.0,56,30.52,10.0,Calm,Calm,-,N/A,,Clear,0,2013-11-04 05:56:00
1:56 AM,32.0,21.0,64,30.53,10.0,North,3.5,-,N/A,,Clear,360,2013-11-04 06:56:00
2:56 AM,28.9,19.9,69,30.55,10.0,NNW,4.6,-,N/A,,Clear,330,2013-11-04 07:56:00
3:56 AM,30.0,19.0,64,30.56,10.0,NNW,4.6,-,N/A,,Partly Cloudy,330,2013-11-04 08:56:00
4:56 AM,28.9,18.0,64,30.57,10.0,NW,3.5,-,N/A,,Partly Cloudy,310,2013-11-04 09:56:00
5:56 AM,28.9,19.9,69,30.59,10.0,NNW,3.5,-,N/A,,Scattered Clouds,340,2013-11-04 10:56:00
6:56 AM,30.0,17.1,59,30.62,10.0,Calm,Calm,-,N/A,,Partly Cloudy,0,2013-11-04 11:56:00
7:56 AM,33.1,17.1,52,30.65,10.0,Calm,Calm,-,N/A,,Partly Cloudy,0,2013-11-04 12:56:00
8:56 AM,35.1,19.0,52,30.65,10.0,ENE,4.6,-,N/A,,Scattered Clouds,70,2013-11-04 13:56:00
9:56 AM,39.0,17.1,41,30.65,10.0,ESE,6.9,-,N/A,,Clear,110,2013-11-04 14:56:00
10:56 AM,41.0,16.0,36,30.64,10.0,Variable,6.9,-,N/A,,Mostly Cloudy,0,2013-11-04 15:56:00
11:56 AM,44.1,19.9,38,30.63,10.0,SSW,5.8,-,N/A,,Mostly Cloudy,200,2013-11-04 16:56:00
12:56 PM,43.0,18.0,37,30.61,10.0,Calm,Calm,-,N/A,,Mostly Cloudy,0,2013-11-04 17:56:00
1:56 PM,44.1,19.0,37,30.58,10.0,South,4.6,-,N/A,,Overcast,170,2013-11-04 18:56:00
2:56 PM,43.0,18.0,37,30.59,10.0,SE,4.6,-,N/A,,Overcast,130,2013-11-04 19:56:00
3:56 PM,44.1,19.9,38,30.60,10.0,South,5.8,-,N/A,,Mostly Cloudy,190,2013-11-04 20:56:00
4:56 PM,39.9,19.9,45,30.59,10.0,SE,5.8,-,N/A,,Mostly Cloudy,140,2013-11-04 21:56:00
5:56 PM,39.0,21.9,50,30.60,10.0,SE,3.5,-,N/A,,Mostly Cloudy,140,2013-11-04 22:56:00
6:56 PM,39.0,19.9,46,30.61,10.0,Calm,Calm,-,N/A,,Mostly Cloudy,0,2013-11-04 23:56:00
7:56 PM,37.9,21.0,51,30.61,10.0,East,3.5,-,N/A,,Overcast,80,2013-11-05 00:56:00
8:56 PM,36.0,23.0,59,30.63,10.0,Calm,Calm,-,N/A,,Overcast,0,2013-11-05 01:56:00
9:56 PM,37.0,21.0,52,30.64,10.0,Calm,Calm,-,N/A,,Overcast,0,2013-11-05 02:56:00
10:56 PM,36.0,24.1,62,30.63,10.0,East,3.5,-,N/A,,Overcast,90,2013-11-05 03:56:00
11:56 PM,35.1,24.1,64,30.62,10.0,Calm,Calm,-,N/A,,Overcast,0,2013-11-05 04:56:00